Погода в Крапивке

Россия / Орловская область     52°17′33″N   35°47′17″E
темп.,
°C
ветер,
м/с
пор.,
м/с
влажн.,
%
обл.,
%
осадки,
мм/ч
давл.,
гПа
погр.,
м
19 апреля, пн
пн1900:00+5ссв3592100 0.0 1018124
03:00+5ссв3592100 0.0 1017105
06:00+5в249497 0.1 1017241
09:00+5св4792100 0.4 1017370
12:00+9вюв576997 0.2 10161100
15:00+11в345963 0.3 10161233
18:00+9ссв347388 0.5 1015260
21:00+7всв46895 1.4 1015133
20 апреля, вт
вт2000:00+6всв489619 0.4 1015227
03:00+5всв379795 0.8 1014193
06:00+6всв4997100 0.4 1013434
09:00+7в61191100 0.7 1012642
12:00+8в6989100 4.6 1011992
15:00+9всв71087100 5.9 1009686
18:00+7св61089100 0.3 1006596
21:00+5ссв61093100 0.4 1005566
21 апреля, ср
ср2100:00+4с5796100 0.4 1003710
03:00+3сз5998100 1.7 1004481
06:00+3з51097100 0.0 1005657
09:00+4зюз6994100 0.1 1008713
12:00+6зюз6984100 0.1 1009877
15:00+7зюз588142 0.3 1011844
18:00+8зюз5777100 0.1 1012877
21:00+5ююз3391100 0.2 101443
22 апреля, чт
чт2200:00+5ююз3887100 0.0 1015178
03:00+5ю4108872 0.0 1015201
06:00+5ю5138765 0.0 1016273
09:00+9ююз6117395 0.0 1016473
12:00+14юз79618 0.1 10171343
15:00+15юз685675 1.3 10171592
18:00+14юз476435 0.8 1017515
21:00+10ю347936 1.3 101845
23 апреля, пт
пт2300:00+10ю3777100 0.0 1018128
03:00+9ю3779100 0.0 1018144
06:00+9ю3882100 0.0 1018172
09:00+13ю51068100 0.0 1017515
12:00+16ю794987 1.3 10162361
15:00+15ю7105861 1.4 10151368
18:00+14ю81267100 1.3 1014710
21:00+10зюз61291100 2.9 1015661